Regional Weather Roundup
Issued by NWS

Home | Current Version | Previous Version | Text Only | Print | Product List | Glossary On
Versions: 1 2 3 4 5 6 7 8 9 10 11 12 13 14 15 16 17 18 19 20 21 22 23 24 25 26 27 28 29 30 31 32 33 34 35 36 37 38 39 40 41 42 43 44 45 46 47 48 49 50
000
ASHW40 PHFO 260710
RWRHI

WEATHER ROUNDUP FOR HAWAII
NATIONAL WEATHER SERVICE HONOLULU HI
900 PM HST FRI JUL 25 2014

THIS IS AN AUTOMATED REPORT THAT HAS NOT BEEN QUALITY CONTROLLED.

NOTE..."FAIR" INDICATES FEW OR NO CLOUDS BELOW 12,000 FEET WITH NO
SIGNIFICANT WEATHER AND/OR OBSTRUCTIONS TO VISIBILITY.

* - THESE SITES REPORT LIMITED FIELDS

HIZ001>004-260800-
KAUAI-NIIHAU-

CITY           SKY/WX    TMP DP  RH WIND       PRES   REMARKS
LIHUE APT      CLOUDY    78  68  71 NE13      30.00R
PORT ALLEN*      N/A     77 N/A N/A E10         N/A
POIPU*           N/A     79 N/A N/A NE6G14      N/A
PRINCEVILLE*   NOT AVBL
KOKOLE POINT*  NOT AVBL
MOLOAA DAIRY*  NOT AVBL
WAIMEA HTS*    NOT AVBL
PUU OPAE*      NOT AVBL
PUU LUA*       NOT AVBL
MAKAHA RIDGE*  NOT AVBL
$$

HIZ005>011-260800-
OAHU-

CITY           SKY/WX    TMP DP  RH WIND       PRES   REMARKS
HONOLULU       PTCLDY    79  66  64 NE10G20   29.97R
KALAELOA       CLEAR     76  66  71 CALM      29.99R
KANEOHE MCB    PTCLDY    77  66  68 E8        29.99R
WHEELER FIELD  FAIR      73  67  81 NE6       30.00R
BELLOWS*       NOT AVBL
KAHUKU*        NOT AVBL
WHEELER*       NOT AVBL
WAIANAE HARBOR NOT AVBL
DILLINGHAM*      N/A     73  68  83 E2          N/A
KAHUKU TRN*      N/A     73  68  83 E6G14       N/A
KAWAILOA*      NOT AVBL
KII*             N/A     79  72  78 CALM        N/A
MAKUA RANGE*     N/A     75  68  78 E3G10       N/A
OAHU FOREST NW NOT AVBL
SCHOFIELD BRK*   N/A     72  66  83 NE1         N/A
SCHOFIELD S*   NOT AVBL
WAIANAE VLY*   NOT AVBL
KUAOKALA*      NOT AVBL
HONOULIUULI*   NOT AVBL
MOKUOLOE IS*     N/A    N/A N/A N/A MISG        N/A
PALEHUA*       NOT AVBL
WAIAWA PHB*    NOT AVBL
$$

HIZ012>013-260800-
MOLOKAI-

CITY           SKY/WX    TMP DP  RH WIND       PRES   REMARKS
MOLOKAI AIRPT  CLEAR     75  71  87 NE9G20    29.99R
KALAUPAPA      NOT AVBL
MAKAPULAPAI*   NOT AVBL
MOLOKAI 1*     NOT AVBL
PUU ALII*      NOT AVBL
$$

HIZ016-260800-
KAHOOLAWE-

CITY           SKY/WX    TMP DP  RH WIND       PRES   REMARKS
KAHOOLAWE*     NOT AVBL
HAKIOAWA*      NOT AVBL
HONOKANAIA*      N/A     79  70  74 NE16G29   29.98R
KANELOA*         N/A     73  68  83 E15G25    30.09R
KEALIALALO*    NOT AVBL
LUA MAKIKA*    NOT AVBL
$$

HIZ014>015-260800-
LANAI-

CITY           SKY/WX    TMP DP  RH WIND       PRES   REMARKS
LANAI CITY     CLOUDY    73  66  78 NE12      30.04R
LANAI 1*       NOT AVBL
$$

HIZ017>028-260800-
MAUI-

CITY           SKY/WX    TMP DP  RH WIND       PRES   REMARKS
KAHULUI        PTCLDY    78  65  63 E9        29.97R
KAPALUA-W MAUI NOT AVBL
HANA AIRPORT   MOCLDY    75  70  83 SE2       30.02S
HANA*          NOT AVBL
HALEAKALA SUMM   N/A     50  -4  10 E17         N/A
MAALAEA BAY*   NOT AVBL
HALEAKALA*     NOT AVBL
KAUPO GAP*     NOT AVBL
KULA 1*          N/A     52  50  94 NE3         N/A
$$

HIZ023>026-260800-
BIG ISLAND OF HAWAII COAST AND LOWER SLOPES-

CITY           SKY/WX    TMP DP  RH WIND       PRES   REMARKS
KAILUA KONA    MOCLDY    82  69  64 S8        29.94R
HILO           PTCLDY    73  69  87 SW7       29.99R
HONOKAA*       NOT AVBL
KAWAIHAE MWT*  NOT AVBL
KAWAIHAE*        N/A     82 N/A N/A E3G9        N/A
SOUTH POINT*   NOT AVBL
UPOLU AIRPORT* NOT AVBL
KAMUELA*       CLOUDY    66  63  88 NE14      30.10R
HAKALAU*         N/A     55  55  99 S3          N/A
KALOKO-HONOKO* NOT AVBL
PALI 2*          N/A     66  63  88 NE12G18     N/A
KEALAKOMO*       N/A     79  70  73 NE8G16      N/A
KAUPULEHU*     NOT AVBL
KAPAPALA*        N/A     70  65  85 N1G9        N/A
LOWER KAHUKU*  NOT AVBL
PUHE CS*       NOT AVBL
PUHO CS*       NOT AVBL
PTA KEAMUKU*     N/A    N/A N/A N/A NE5         N/A
WAIKOLOA*      NOT AVBL
$$

HIZ027>028-260800-
BIG ISLAND OF HAWAII INTERIOR AND SUMMMITS-

CITY           SKY/WX    TMP DP  RH WIND       PRES   REMARKS
BRADSHAW FIELD PTCLDY    55  55 100 W3        30.32R FOG
MK VISITOR CEN NOT AVBL
MAUNA KEA*       N/A     39 -11  11 SE17        N/A
MAUNA LOA*       N/A    N/A N/A N/A MISG        N/A
MAUNA LOA 1*   NOT AVBL
PTA KIPUKA*      N/A     59  57  94 S2          N/A
PTA RANGE 17*    N/A     57  55  94 SW3G12      N/A
PTA WEST*        N/A     61  59  94 CALM        N/A
NENE CABIN*    NOT AVBL
AHUMOA*        NOT AVBL
PTA PORTABLE*  NOT AVBL
PUU MALI*      NOT AVBL
$$

HIC003-260800-
NORTHWEST ISLANDS-

CITY           SKY/WX    TMP DP  RH WIND       PRES   REMARKS
MIDWAY ISLAND  CLEAR     82  73  74 SE7       30.06S
MIDWAY NOS*    NOT AVBL
FRENCH FRIGATE NOT AVBL
$$

PHZ110>124-180-260800-
BUOY REPORTS

STATION/POSITION TIME  TEMP    WIND        PRES    WAVE   SWELL
                       AIR SEA DIR/SP/G            HT/PER HT/DIR
                 (UTC) (F)     (DEG/KT/KT) (MB)    (FT/S) (FT/D)
BUOY 51001       NOT AVBL
BUOY 51101       NOT AVBL
BUOY 51100       0700   77 78   80/ 14/ 16 1016.7R
BUOY 51003       0600   80 81   80/ 10/ 12 1013.7R   6/ 8   5
BUOY 51004       0636   79 80   60/ 17/ 21 1013.5R   7/ 8   3/100
BARBERS PT BUOY  NOT AVBL
WAIMEA BAY BUOY  0700      80                N/A     3/ 6
KAILUA BAY BUOY  0700      80                N/A     5/ 7
LANAI BUOY       0700      81                N/A     2/11   2/190
BARBERS PT 2     0700      81                N/A     4/ 7   2/190
PAUWELA MAUI     0700      79                N/A     4/ 8
HILO             NOT AVBL
KANEOHE BAY BUOY 0700      80                N/A     4/ 5
HANALEI KAUAI    NOT AVBL
KAHULUI HARBOR   0700   78 81   80/  7/ 13 1014.6R
HONOLULU HARBOR  0700   80      80/  4/ 10 1015.2R
KILO NALU        NOT AVBL
HILO HARBOR      0700   73     220/  6/  9 1015.1R
MOKUOLOE         0700   79 82   80/  9/ 11 1015.7S
NAWILIWILI       0700      81                N/A
WHOTS BUOY       NOT AVBL
BUOY 51028       NOT AVBL
$$

......................KEY........................................
  SKY/WX - SKY CONDITIONS/PRESENT WEATHER
  TMP    - TEMPERATURE IN FAHRENHEIT
  DWPT   - DEWPOINT IN FAHRENHEIT
  RH     - RELATIVE HUMIDITY IN PERCENT
  WIND   - DIRECTION AND SPEED /MPH FOR ISLANDS...KTS FOR BUOYS/
  PRES   - MEAN SEA LEVEL PRESSURE IN INCHES OF HG
  VSB    - VISIBILITY IN MILES
  HX     - HEAT INDEX
  WCI    - WIND CHILL INDEX
  VRB    - VARIABLE WIND DIRECTION
  N/A    - NOT AVAILABLE


USA.gov is the U.S. government's official web portal to all federal, state and local government web resources and services.